Regional Weather Roundup
Issued by NWS State College, PA

Home | Current Version | Previous Version | Graphics & Text | Print | Product List | Glossary Off
Versions: 1 2 3 4 5 6 7 8 9 10 11 12 13 14 15 16 17 18 19 20 21 22 23 24 25 26 27 28 29 30 31 32 33 34 35 36 37 38 39 40 41 42 43 44 45 46 47 48 49 50

000
ASUS41 KCTP 250603
RWRCTP

REGIONAL WEATHER ROUNDUP
NATIONAL WEATHER SERVICE STATE COLLEGE PA
100 AM EST THU DEC 25 2014

Note: "fair" indicates few or no clouds below 12,000 feet with no
significant weather and/or obstructions to visibility.

* = STATION THAT DOES NOT REPORT PRECIPITATION /E.G. RAIN...SNOW...ETC/
    THUNDER OR FOG.

PAZ002>004-007>009-013>016-020>023-029>032-250700-
WESTERN PENNSYLVANIA

CITY           SKY/WX    TMP DP  RH WIND       PRES   REMARKS
ERIE           CLOUDY    43  32  65 SW20G30   29.51R
MEADVILLE      CLOUDY    40  32  73 SW14G30   29.54R
FRANKLIN*      CLOUDY    39  32  75 SW13G29   29.58R
NEW CASTLE     LGT RAIN  40  37  89 SW10G20   29.62R
BEAVER COUNTY  NOT AVBL
BUTLER*        CLOUDY    39  36  87 SW15G24   29.64R
PITTSBURGH INT CLOUDY    41  36  82 SW12G23   29.64R
PITTSBURGH     CLOUDY    41  33  73 SW13G25   29.64R
INDIANA*       MOCLDY    43  39  87 W17G23    29.65R
LATROBE        CLOUDY    41  39  93 SW13      29.67F
WASHINGTON CO* NOT AVBL
$$

PAZ004>006-010>012-017>019-024>028-033>037-041-042-045-046-049>053-250700-
CENTRAL PENNSYLVANIA

CITY           SKY/WX    TMP DP  RH WIND       PRES   REMARKS
BRADFORD       LGT RAIN  40  36  86 SW18G29   29.50R
DUBOIS         CLOUDY    40  37  89 SW20      29.56R
CLEARFIELD     LGT RAIN  44  39  82 W17G35    29.56R
JOHNSTOWN      LGT RAIN  38  34  85 W30G41    29.60S
ALTOONA        CLOUDY    47  40  76 W22G32    29.59R
STATE COLLEGE  CLOUDY    47  40  77 W24G36    29.56R
WILLIAMSPORT   CLOUDY    53  47  79 W13G23    29.50R
SELINSGROVE    CLOUDY    52  49  89 S5        29.54R
FT INDIANTOWN  CLOUDY    52  52 100 SW10      29.55R
CAPITAL CITY   CLOUDY    52  50  93 W6        29.56R
HARRISBURG     CLOUDY    51  49  92 W6        29.55R
YORK           CLOUDY    56  51  84 W12G21    29.57R
$$

PAZ038>040-043-044-047-048-054-055-060>062-067>071-250700-
EASTERN PENNSYLVANIA

CITY           SKY/WX    TMP DP  RH WIND       PRES   REMARKS
SCRANTON       CLOUDY    61  54  77 S13G21    29.44F
MOUNT POCONO   LGT RAIN  55  54  96 SW20G33   29.48S FOG
ALLENTOWN      CLOUDY    62  58  86 SW13G21   29.49F
QUAKERTOWN*    NOT AVBL
READING        CLOUDY    60  56  86 SW14G24   29.51R
LANCASTER      LGT RAIN  59  55  87 W24G35    29.53R
COATESVILLE    CLOUDY    63  63 100 SW10G24   29.53S
POTTSTOWN      CLOUDY    63  59  87 SW12G25   29.52S
BLUE BELL      CLOUDY    63  63 100 SW10      29.52S
DOYLESTOWN     CLOUDY    61  61 100 S8        29.51F
WILLOW GROVE   NOT AVBL
NORTH PHILA    CLOUDY    66  59  78 SW12G22   29.54F
PHILADELPHIA   LGT RAIN  63  60  90 S14       29.54S
$$



USA.gov is the U.S. government's official web portal to all federal, state and local government web resources and services.